This is the latest recevied weather packets stored in our database for station/object KO4LFZ. If no packets are shown the sender has not sent any weather packets the latest 10 day(s).
| Time | Temp. | Humidity | Pressure | Rain* | Wind** | Luminosity | Snow |
|---|---|---|---|---|---|---|---|
| 1778183821 | 18.33° C | 42% | 1015.8 hPa | 0 mm | - | 646 W/m² | - |
| 1778183519 | 18.89° C | 43% | 1015.8 hPa | 0 mm | - | 650 W/m² | - |
| 1778183215 | 18.89° C | 45% | 1015.8 hPa | 0 mm | - | 653 W/m² | - |
| 1778182911 | 18.89° C | 42% | 1015.9 hPa | 0 mm | - | 665 W/m² | - |
| 1778182608 | 18.89° C | 45% | 1015.8 hPa | 0 mm | - | 648 W/m² | - |
| 1778182305 | 18.33° C | 45% | 1016 hPa | 0 mm | - | 634 W/m² | - |
| 1778182001 | 18.33° C | 43% | 1016.1 hPa | 0 mm | - | 644 W/m² | - |
| 1778181699 | 17.78° C | 44% | 1016.1 hPa | 0 mm | - | 644 W/m² | - |
| 1778181394 | 17.78° C | 44% | 1016.2 hPa | 0 mm | - | 692 W/m² | - |
| 1778181091 | 18.33° C | 44% | 1015.8 hPa | 0 mm | - | 719 W/m² | - |
| 1778180788 | 18.33° C | 47% | 1016.2 hPa | 0 mm | - | 712 W/m² | - |
| 1778180487 | 18.33° C | 46% | 1016.1 hPa | 0 mm | - | 693 W/m² | - |
| 1778180185 | 17.78° C | 45% | 1016.3 hPa | 0 mm | - | 691 W/m² | - |
| 1778179881 | 17.78° C | 45% | 1016.4 hPa | 0 mm | - | 718 W/m² | - |
| 1778179579 | 17.78° C | 44% | 1016.1 hPa | 0 mm | - | 707 W/m² | - |
| 1778179277 | 17.78° C | 44% | 1016.1 hPa | 0 mm | - | 707 W/m² | - |
| 1778178973 | 17.78° C | 47% | 1016.3 hPa | 0 mm | - | 747 W/m² | - |
| 1778178670 | 17.78° C | 43% | 1016.3 hPa | 0 mm | - | 766 W/m² | - |
| 1778178366 | 17.78° C | 42% | 1016.4 hPa | 0 mm | - | 726 W/m² | - |
| 1778178062 | 17.78° C | 42% | 1016.4 hPa | 0 mm | - | 726 W/m² | - |
| 1778177759 | 17.78° C | 45% | 1016.6 hPa | 0 mm | - | 722 W/m² | - |
| 1778177456 | 17.22° C | 43% | 1016.6 hPa | 0 mm | - | 724 W/m² | - |
| 1778177152 | 17.22° C | 47% | 1016.5 hPa | 0 mm | - | 722 W/m² | - |
| 1778176849 | 17.78° C | 51% | 1016.4 hPa | 0 mm | - | 712 W/m² | - |
| 1778176545 | 17.78° C | 44% | 1016.6 hPa | 0 mm | - | 727 W/m² | - |
* Rain latest hour (hover to see other rain measurements)
** Current wind speed in m/s (hover to see current wind gust speed)